AQUA

Last updated on Sun Dec 21 2025 00:02:18 GMT+0000 (Coordinated Universal Time)

1 27424U 02022A 25353.80385887 .00000725 00000+0 15510-3 0 9998 2 27424 98.4046 314.7980 0001348 112.3467 286.6091 14.61824191257063
UTC large
Height (km)
Speed (km/s)
/
Latitude / Longitude
Inclination (degrees)
Orbital Period (minutes)
Azimuth
Elevation
Range (km)
Doppler Factor

Next 0 passes for location: London (51.5072 / 0.1276)

Sorry there are no passes over London.